FW5988 Weather Reports


time (UTC)temp
F
wind
direction
speed
knots
gust
knots
rain 1hr
in
rain 24hr
in
rain mn
in
humidity
%
barometer
mb
20260507220037 50 165 4.3 8.7 0.00 0.02 0.02 87 1010.1
20260507214554 50 186 3.5 7.8 0.00 0.02 0.02 88 1010.1
20260507213016 50 159 4.3 7.8 0.00 0.02 0.02 89 1010.1
20260507211549 50 182 6.1 9.6 0.00 0.02 0.02 89 1010.1
20260507210114 50 113 3.5 8.7 0.00 0.02 0.02 86 1009.9
20260507204512 50 121 4.3 11.3 0.00 0.02 0.02 83 1009.9
20260507203043 51 124 4.3 7.8 0.00 0.02 0.02 81 1010.0
20260507201508 49 119 4.3 8.7 0.00 0.02 0.02 84 1010.1
20260507200041 49 128 5.2 9.6 0.00 0.02 0.02 84 1010.4
20260507194601 50 107 2.6 9.6 0.00 0.02 0.02 84 1010.3
20260507193008 51 97 3.5 10.4 0.00 0.02 0.02 82 1010.6
20260507191532 51 101 4.3 8.7 0.00 0.02 0.02 77 1010.6
20260507190058 50 95 2.6 7.8 0.00 0.02 0.02 82 1010.4
20260507184514 49 112 1.7 7.8 0.00 0.02 0.02 86 1011.0
20260507183043 49 123 4.3 8.7 0.00 0.02 0.02 87 1011.1
20260507181603 49 116 3.5 8.7 0.00 0.02 0.02 86 1010.9
20260507180019 49 112 3.5 7.0 0.00 0.02 0.02 86 1011.0
20260507174545 49 107 3.5 10.4 0.00 0.02 0.02 85 1011.1
20260507173123 49 115 3.5 7.8 0.00 0.02 0.02 85 1011.3
20260507171531 49 117 3.5 7.0 0.00 0.02 0.02 86 1011.5
20260507170058 50 85 1.7 6.1 0.00 0.03 0.02 85 1011.3
20260507164522 49 92 1.7 5.2 0.00 0.03 0.02 85 1011.9
20260507163037 50 84 3.5 7.8 0.00 0.03 0.02 88 1011.8
20260507161603 49 69 3.5 7.8 0.00 0.03 0.02 88 1011.8
20260507160027 49 81 1.7 8.7 0.00 0.03 0.02 89 1012.1
20260507154553 49 80 3.5 9.6 0.00 0.03 0.02 89 1012.4
20260507153009 50 71 1.7 5.2 0.01 0.03 0.02 91 1012.5
20260507151538 50 70 4.3 10.4 0.01 0.03 0.02 91 1012.2
20260507150055 50 65 5.2 9.6 0.01 0.03 0.02 93 1011.9
20260507144534 50 78 2.6 6.1 0.01 0.03 0.02 93 1011.9
20260507143048 50 346 2.6 7.0 0.00 0.02 0.01 92 1012.4
20260507141509 50 355 3.5 10.4 0.00 0.02 0.01 91 1012.6
20260507140035 50 11 5.2 8.7 0.00 0.06 0.01 90 1012.5
20260507134548 51 14 3.5 7.8 0.00 0.06 0.01 90 1012.5
20260507133059 51 11 2.6 5.2 0.00 0.06 0.01 89 1012.5
20260507131527 51 32 2.6 5.2 0.00 0.06 0.01 89 1012.6
20260507130050 51 49 1.7 5.2 0.00 0.07 0.01 90 1012.4
20260507124511 51 20 2.6 6.1 0.00 0.07 0.01 91 1012.3
20260507123037 50 42 3.5 8.7 0.00 0.07 0.01 93 1012.2
20260507121557 50 344 2.6 7.0 0.00 0.07 0.01 95 1012.3
20260507120008 50 348 2.6 7.0 0.00 0.07 0.01 96 1011.8
20260507114559 50 14 2.6 7.8 0.00 0.07 0.01 97 1012.0
20260507113130 50 351 1.7 7.0 0.00 0.07 0.01 98 1011.7
20260507111536 50 13 2.6 6.1 0.00 0.07 0.01 98 1011.6
20260507110045 50 65 2.6 5.2 0.00 0.07 0.01 98 1011.3
20260507104502 50 64 1.7 4.3 0.00 0.07 0.01 98 1011.0
20260507103041 50 44 1.7 4.3 0.00 0.07 0.01 98 1011.3
20260507101559 50 73 3.5 7.0 0.00 0.07 0.01 98 1011.1
20260507100014 50 77 2.6 7.0 0.00 0.07 0.01 98 1011.1
20260507094543 50 76 3.5 10.4 0.00 0.07 0.01 98 1010.8
20260507093102 51 76 1.7 7.8 0.00 0.07 0.01 98 1010.8
20260507091531 51 92 2.6 7.8 0.00 0.07 0.01 98 1011.0
20260507090049 51 104 2.6 8.7 0.00 0.07 0.01 98 1011.0
20260507084519 52 92 1.7 6.1 0.00 0.07 0.01 98 1010.7
20260507083043 52 98 1.7 8.7 0.00 0.07 0.01 98 1010.5
20260507081510 53 81 3.5 10.4 0.00 0.07 0.01 98 1010.3
20260507080044 53 105 2.6 7.8 0.00 0.07 0.01 97 1010.4
20260507074503 54 113 3.5 7.8 0.00 0.07 0.01 97 1010.4
20260507073021 56 94 2.6 8.7 0.00 0.07 0.01 97 1010.0
20260507071546 58 39 2.6 7.0 0.00 0.07 0.01 97 1009.9
20260507070012 60 69 0.9 3.5 0.00 0.07 0.01 98 1009.6
20260507064526 60 44 1.7 7.8 0.00 0.07 0.01 98 1009.4
20260507063044 61 344 5.2 15.6 0.00 0.07 0.01 98 1010.2
20260507061559 62 306 4.3 8.7 0.00 0.07 0.01 97 1010.1
20260507060027 62 271 7.0 9.6 0.00 0.07 0.01 97 1009.9
20260507054548 62 277 3.5 7.0 0.00 0.07 0.01 95 1010.0
20260507053103 63 257 3.5 7.8 0.00 0.07 0.01 93 1009.3
20260507051522 63 178 4.3 7.0 0.01 0.07 0.01 91 1009.0
20260507050043 64 208 3.5 7.0 0.01 0.07 0.01 89 1009.3
20260507044606 64 252 4.3 10.4 0.01 0.07 0.01 89 1009.6
20260507043024 63 209 4.3 9.6 0.01 0.07 0.01 91 1010.0
20260507041539 63 196 3.5 12.2 0.00 0.06 0.00 92 1009.8
20260507040106 64 177 4.3 13.0 0.00 0.06 0.00 92 1009.5
20260507034534 64 233 5.2 15.6 0.00 0.06 0.06 92 1010.0
20260507033045 64 221 7.8 15.6 0.00 0.06 0.06 91 1010.5
20260507031500 64 208 7.0 13.9 0.00 0.06 0.06 91 1010.1
20260507030029 63 223 6.1 13.0 0.00 0.06 0.06 92 1009.9
20260507024544 64 209 6.1 13.9 0.00 0.06 0.06 92 1010.2
20260507023109 64 229 7.0 14.8 0.00 0.06 0.06 92 1010.3
20260507021524 63 198 7.8 15.6 0.00 0.06 0.06 92 1009.5
20260507020057 63 146 9.6 19.1 0.00 0.06 0.06 91 1008.9
20260507014508 63 178 7.8 14.8 0.00 0.06 0.06 91 1009.4
20260507013040 63 186 6.1 18.2 0.00 0.06 0.06 91 1009.8
20260507011555 64 200 7.0 13.9 0.00 0.06 0.06 90 1009.6
20260507010033 64 197 7.8 14.8 0.00 0.06 0.06 90 1010.0
20260507004550 64 192 7.0 17.4 0.00 0.06 0.06 90 1009.8
20260507003000 64 204 6.1 13.0 0.00 0.06 0.06 90 1009.8
20260507001602 64 132 7.8 13.0 0.00 0.06 0.06 89 1009.8
20260507000056 64 190 8.7 17.4 0.00 0.06 0.06 89 1009.7
20260506234506 64 172 7.0 16.5 0.00 0.06 0.06 88 1009.2
20260506233031 64 191 6.1 12.2 0.00 0.06 0.06 87 1009.5
20260506231604 65 182 5.2 18.2 0.00 0.06 0.06 87 1009.8
20260506230048 65 177 8.7 20.0 0.00 0.06 0.06 86 1009.2
20260506224542 65 191 7.0 10.4 0.00 0.06 0.06 87 1009.2
20260506223107 65 159 7.8 20.9 0.00 0.06 0.06 87 1009.1
20260506221534 65 148 7.0 13.9 0.00 0.06 0.06 88 1009.0